Wind_Speed
42 43 47 52 56 57 56 56 53 47 39 30 30 32 35 30 31 33 35 36 36 36 36 37 39 39 40 41 42 44 46 47 52 53 53 51 50 51 50 46 43 43 45
42 47 51 56 56 58 55 51 46 38 31 32 35 36 35 31 31 33 34 33 35 38 40 41 41 40 39 39 40 41 43 43 47 50 50 50 48 48 50 48 47 45 45
45 51 52 57 56 55 51 43 35 31 32 36 35 36 34 33 33 33 34 34 36 39 39 39 39 39 38 38 39 41 42 43 45 48 49 50 50 48 48 48 46 47 46
50 53 57 58 56 49 42 33 30 32 32 32 32 34 34 34 34 33 33 36 38 39 39 38 38 38 39 39 39 39 40 43 45 47 48 49 50 48 48 48 47 46 47
52 55 57 55 47 39 32 31 28 28 30 30 31 30 35 35 37 39 40 41 40 39 37 37 36 37 38 40 42 43 45 47 48 49 50 50 51 51 49 46 47 43 44
54 54 51 45 38 35 34 31 32 32 28 30 35 36 37 38 39 41 42 42 41 41 40 37 37 38 39 41 43 44 45 46 46 47 48 48 48 50 49 46 45 45 44
53 48 40 39 34 34 31 31 34 36 36 36 37 37 38 39 40 41 41 42 42 41 39 38 39 39 41 42 40 38 38 37 39 39 40 39 38 36 37 38 39 39 39
44 40 38 33 31 34 38 37 35 34 35 36 37 37 36 36 38 39 41 42 41 39 37 39 39 39 36 36 36 35 34 33 33 36 39 39 38 35 34 33 32 33 33
38 36 34 36 36 33 31 32 32 32 34 35 36 36 36 37 39 39 41 40 38 35 36 35 37 33 33 33 34 33 32 30 29 30 32 34 36 35 34 34 32 31 31
39 38 35 33 33 33 32 31 33 36 37 37 35 36 37 37 37 37 38 37 34 34 32 31 29 30 29 31 31 31 30 26 25 23 22 24 26 28 29 32 30 30 29
35 35 30 31 34 33 32 35 37 38 36 36 36 35 35 36 36 36 35 34 35 32 29 25 24 25 27 28 29 29 26 25 23 22 20 20 19 20 23 25 28 29 28
38 29 32 35 33 33 35 38 38 37 36 36 34 33 33 33 34 34 33 34 31 29 25 24 23 25 27 26 24 24 23 23 21 19 18 18 18 19 19 22 23 26 27
27 31 34 32 33 36 39 39 36 35 34 34 35 35 33 30 29 30 31 29 26 23 23 22 22 24 21 17 15 12 10 10 10 12 14 15 17 18 18 20 22 22 21
29 32 33 33 35 38 38 35 34 33 34 36 36 35 32 29 28 28 24 22 19 18 16 16 18 21 19 12 11 11 9 9 9 10 10 10 11 12 14 16 17 16 19
30 31 32 35 37 37 33 31 32 34 36 38 37 34 32 29 27 21 19 16 13 11 11 12 15 19 17 15 12 10 10 10 9 8 9 10 10 7 7 11 12 14 14
28 30 33 35 35 33 29 29 31 33 36 35 33 32 29 27 23 18 15 13 10 9 9 10 13 17 19 15 12 11 10 9 7 6 6 6 7 8 6 4 4 6 5
29 32 33 33 30 28 28 31 32 33 33 32 31 28 27 26 19 15 12 10 8 8 9 10 10 13 18 20 17 13 10 8 5 4 3 4 5 7 7 6 6 8 5
29 31 31 28 27 26 29 30 33 35 31 29 27 28 26 19 16 13 10 8 8 9 9 9 9 10 13 15 16 17 17 13 9 5 3 4 4 4 4 2 1 0 1
28 27 25 24 24 27 29 30 34 33 31 30 26 24 23 17 14 11 7 6 7 8 8 9 10 10 11 12 13 15 16 17 18 15 7 7 6 5 5 4 4 4 5
22 23 22 22 25 27 27 30 32 30 30 29 26 25 20 14 11 10 7 6 6 7 7 8 9 10 11 11 12 13 15 16 17 18 17 8 7 8 7 6 7 9 10
21 21 22 23 25 25 26 30 30 29 29 27 26 26 21 14 9 8 7 5 5 6 6 7 8 9 11 11 12 13 13 14 15 15 16 17 14 5 6 7 6 5 6
20 22 23 23 22 22 25 29 29 28 27 27 26 25 20 13 9 8 7 6 5 5 5 5 6 7 7 9 10 12 13 14 14 13 14 15 17 17 11 6 6 8 8
19 21 22 21 21 21 24 27 28 27 26 26 26 25 21 14 10 8 8 6 5 5 5 3 4 5 6 8 9 10 11 11 11 12 14 15 15 15 14 13 10 6 6
19 21 22 21 20 20 22 25 27 27 25 24 24 24 22 18 12 8 8 7 6 5 3 2 3 5 6 7 8 9 10 10 10 11 12 13 13 12 12 12 11 10 9
19 21 21 21 20 20 22 24 25 25 24 23 22 21 21 20 15 9 7 8 7 4 1 3 3 5 7 7 8 9 9 10 10 11 11 11 11 11 11 11 11 10 9
17 20 19 19 19 19 21 22 23 23 23 22 21 20 19 18 18 15 11 9 8 5 2 2 4 5 7 8 9 9 10 10 10 11 11 11 11 11 11 11 10 10 10
Wind_Direction
312 312 312 314 314 315 317 314 308 301 299 298 290 290 290 281 280 282 285 291 292 293 292 288 285 283 282 280 278 277 275 274 274 274 274 273 268 268 267 260 254 249 244
311 312 315 315 317 316 315 312 306 298 297 298 298 288 295 291 289 288 285 286 288 289 290 291 290 288 286 283 281 279 276 274 273 274 273 272 270 267 269 267 262 256 250
317 320 317 316 317 317 315 313 308 305 304 306 305 299 298 299 295 292 290 288 291 291 291 291 291 290 289 285 282 279 278 276 274 273 272 272 271 270 269 269 267 264 258
322 317 317 317 318 316 314 309 305 306 306 302 299 295 290 296 305 307 299 295 294 294 295 295 294 292 288 286 283 280 278 275 273 272 271 272 272 270 269 268 266 264 263
318 317 314 315 315 313 314 310 307 302 298 293 292 290 293 304 307 305 301 300 299 298 296 296 293 289 287 286 284 282 279 276 274 272 271 270 270 271 269 268 266 264 261
314 314 314 316 316 314 310 305 300 303 299 295 297 304 309 308 303 301 301 300 301 302 301 299 293 290 288 288 288 286 284 281 278 275 274 272 270 271 272 271 267 265 260
315 315 316 317 316 308 302 299 298 300 302 308 311 307 303 303 303 302 302 301 302 302 302 299 296 293 293 292 288 284 282 280 280 280 277 275 273 271 271 268 266 264 263
314 321 316 312 307 304 307 313 317 317 312 308 308 308 307 305 302 301 301 301 302 302 299 296 295 296 296 292 290 287 285 282 279 278 277 276 274 272 269 269 269 265 261
316 323 317 318 316 316 317 317 318 318 316 313 310 308 306 305 303 303 303 303 304 301 297 298 299 299 298 297 296 292 285 281 283 282 276 271 268 266 266 266 267 268 264
313 320 322 320 319 322 323 322 323 320 317 314 312 309 307 307 307 307 306 305 303 298 299 301 302 304 303 302 297 290 285 285 286 280 280 282 277 268 261 264 265 263 263
312 320 321 322 323 324 325 324 321 318 316 314 312 311 311 310 309 308 305 304 302 302 306 306 306 306 307 303 295 291 288 285 286 280 283 283 278 271 264 261 263 262 260
320 322 324 324 324 324 323 322 321 320 318 317 316 314 311 310 309 306 305 302 303 306 310 310 314 314 313 306 299 293 287 283 284 283 287 284 276 265 258 256 258 261 263
318 321 322 324 324 323 323 323 323 322 322 322 319 317 315 314 311 308 304 303 304 305 307 310 315 321 323 318 319 321 311 303 302 301 297 292 281 272 262 251 247 252 247
320 322 323 323 323 324 325 326 326 326 326 323 322 322 322 320 315 310 305 301 297 298 301 309 324 335 339 344 347 339 336 328 318 317 325 332 315 293 272 268 266 255 243
321 321 322 323 325 326 328 329 330 330 329 327 326 327 326 324 322 319 316 310 308 306 315 329 339 355 357 358 349 341 335 331 329 330 338 345 346 333 291 272 263 259 258
321 321 321 323 326 326 330 332 333 333 331 328 329 328 328 329 329 328 323 319 317 319 333 342 355 11 17 18 8 354 346 343 336 330 332 354 9 4 351 338 303 274 253
320 320 322 325 325 330 330 334 335 335 335 332 331 332 331 331 331 335 332 327 326 338 349 356 2 18 25 30 30 21 5 354 356 343 346 335 359 13 17 36 83 107 116
318 321 324 326 330 331 335 336 337 338 339 339 334 333 335 335 338 341 337 334 339 353 360 6 12 18 25 29 30 30 29 24 9 343 295 296 320 346 10 23 190 226 232
319 322 325 329 333 336 336 337 341 341 342 341 340 339 339 337 337 342 343 337 342 353 8 20 23 24 25 23 22 25 28 30 29 17 321 273 278 294 286 272 261 257 269
325 328 329 334 338 337 339 341 344 344 344 345 345 346 345 340 333 332 332 331 338 350 8 22 27 29 30 29 26 26 29 29 29 26 25 7 281 269 264 266 267 269 272
333 333 333 337 337 338 343 345 348 348 349 350 349 349 349 346 335 332 323 319 326 335 347 360 17 26 26 19 18 22 25 29 28 29 31 36 31 356 296 277 285 294 288
335 336 336 338 337 339 344 348 351 351 353 356 355 353 351 348 339 339 329 319 318 322 328 336 16 15 7 9 20 28 29 31 32 31 36 40 41 37 28 353 303 289 289
336 339 338 337 337 341 346 350 353 354 356 360 2 358 358 353 346 340 339 330 327 324 327 337 34 12 26 27 22 21 18 18 19 26 33 40 44 41 36 33 25 0 330
334 335 338 335 336 338 344 350 353 355 357 360 5 3 5 0 353 342 347 342 338 333 320 104 52 12 7 7 14 16 18 18 19 22 22 28 33 34 36 33 27 25 24
331 332 334 334 335 338 341 346 350 353 357 359 2 6 8 12 6 354 355 2 349 332 299 113 59 16 7 5 9 13 13 14 17 18 17 15 20 20 14 14 15 12 13
330 332 332 331 334 337 341 343 345 348 354 357 1 3 4 11 16 19 12 12 5 348 1 73 52 20 3 2 6 6 9 13 13 14 15 12 10 9 4 359 358 357 355
Height
3059 3053 3045 3038 3030 3023 3015 3006 2999 2993 2988 2984 2980 2978 2977 2974 2972 2969 2966 2963 2962 2961 2960 2958 2957 2954 2952 2950 2948 2947 2945 2943 2938 2939 2938 2940 2943 2943 2944 2948 2952 2953 2954
3049 3043 3036 3028 3018 3010 3001 2994 2987 2983 2980 2976 2974 2971 2968 2966 2964 2961 2959 2956 2953 2951 2949 2947 2944 2942 2940 2938 2936 2934 2932 2931 2928 2924 2925 2925 2928 2931 2930 2932 2935 2939 2942
3039 3032 3024 3016 3007 2997 2989 2982 2976 2974 2973 2970 2967 2964 2960 2958 2955 2952 2949 2946 2944 2941 2938 2935 2933 2930 2928 2925 2923 2921 2920 2918 2916 2913 2911 2912 2913 2916 2917 2918 2921 2922 2926
3029 3020 3012 3004 2995 2987 2981 2975 2971 2968 2965 2962 2959 2956 2952 2949 2945 2942 2940 2936 2933 2930 2927 2924 2921 2918 2915 2913 2911 2909 2907 2905 2903 2900 2899 2898 2898 2901 2902 2903 2906 2909 2910
3017 3009 3000 2992 2985 2980 2974 2969 2964 2961 2959 2955 2951 2948 2944 2940 2936 2932 2928 2925 2922 2920 2918 2914 2911 2907 2904 2901 2897 2896 2893 2891 2889 2886 2885 2886 2885 2885 2887 2892 2891 2895 2897
3006 2997 2988 2982 2978 2973 2968 2964 2959 2955 2951 2947 2943 2938 2934 2930 2926 2921 2917 2914 2910 2907 2903 2902 2898 2895 2892 2888 2884 2880 2877 2874 2872 2871 2871 2871 2872 2872 2873 2875 2877 2879 2883
2995 2988 2981 2976 2969 2966 2961 2956 2951 2947 2942 2938 2934 2930 2926 2921 2915 2911 2907 2903 2900 2896 2893 2889 2885 2882 2878 2874 2870 2867 2865 2863 2860 2859 2857 2858 2858 2860 2861 2860 2863 2865 2868
2988 2979 2974 2969 2963 2959 2953 2948 2943 2939 2935 2930 2926 2921 2916 2912 2907 2903 2898 2893 2889 2886 2882 2878 2873 2870 2866 2861 2858 2856 2854 2853 2851 2848 2846 2846 2847 2849 2849 2850 2851 2852 2855
2981 2973 2968 2963 2956 2951 2947 2942 2937 2932 2927 2922 2917 2912 2907 2903 2897 2892 2886 2883 2879 2875 2871 2868 2862 2859 2855 2851 2847 2844 2843 2842 2840 2838 2835 2834 2835 2836 2838 2839 2840 2842 2843
2974 2967 2960 2955 2949 2944 2940 2935 2930 2925 2919 2914 2909 2903 2898 2892 2888 2883 2877 2872 2869 2865 2863 2858 2854 2850 2846 2842 2838 2834 2831 2832 2830 2829 2827 2826 2825 2826 2828 2828 2830 2831 2832
2966 2960 2955 2950 2944 2938 2933 2928 2923 2917 2912 2906 2901 2896 2890 2884 2879 2874 2869 2864 2859 2855 2853 2850 2847 2843 2839 2834 2829 2825 2823 2822 2821 2820 2820 2819 2818 2818 2819 2821 2821 2822 2824
2958 2954 2950 2944 2938 2933 2928 2922 2915 2909 2904 2898 2892 2888 2883 2877 2870 2865 2860 2855 2851 2848 2845 2843 2839 2836 2831 2825 2820 2817 2815 2814 2814 2813 2813 2812 2812 2812 2813 2813 2814 2814 2816
2954 2949 2944 2939 2933 2927 2921 2914 2908 2902 2896 2890 2884 2879 2874 2869 2863 2858 2853 2849 2846 2843 2841 2838 2834 2830 2824 2819 2815 2812 2810 2810 2809 2809 2808 2808 2806 2806 2805 2805 2806 2807 2808
2949 2944 2939 2933 2928 2922 2915 2908 2902 2896 2890 2883 2876 2871 2865 2861 2856 2851 2847 2843 2841 2839 2837 2834 2830 2825 2819 2815 2812 2810 2809 2808 2807 2806 2805 2803 2801 2800 2800 2801 2801 2802 2803
2943 2938 2933 2928 2922 2915 2909 2903 2897 2891 2884 2876 2869 2864 2858 2854 2849 2844 2841 2838 2837 2835 2833 2831 2828 2822 2817 2812 2810 2809 2807 2806 2805 2804 2803 2802 2800 2798 2798 2798 2798 2798 2800
2938 2934 2928 2923 2917 2910 2905 2900 2894 2887 2879 2872 2866 2859 2854 2848 2844 2841 2838 2835 2834 2832 2831 2828 2825 2821 2817 2813 2810 2808 2806 2805 2804 2803 2802 2801 2800 2798 2797 2796 2795 2796 2797
2933 2928 2923 2917 2912 2906 2901 2895 2890 2884 2876 2867 2861 2855 2850 2845 2841 2838 2836 2834 2832 2831 2829 2827 2824 2822 2818 2814 2811 2809 2806 2804 2803 2802 2802 2801 2800 2799 2798 2797 2796 2797 2798
2928 2923 2918 2913 2907 2902 2897 2891 2885 2878 2871 2866 2859 2852 2847 2842 2839 2837 2835 2834 2832 2830 2828 2826 2824 2822 2820 2817 2815 2811 2808 2804 2802 2801 2801 2800 2800 2799 2799 2799 2799 2799 2799
2923 2918 2914 2909 2904 2899 2894 2888 2882 2874 2868 2861 2856 2850 2845 2841 2838 2836 2834 2834 2832 2831 2829 2826 2825 2823 2821 2818 2816 2814 2810 2807 2803 2800 2799 2798 2798 2798 2798 2798 2799 2799 2799
2918 2914 2910 2906 2901 2897 2891 2886 2879 2872 2866 2859 2853 2848 2844 2840 2838 2836 2835 2834 2833 2831 2830 2828 2826 2824 2822 2820 2818 2815 2812 2809 2806 2802 2799 2796 2796 2796 2797 2797 2797 2797 2797
2915 2911 2907 2903 2899 2894 2889 2883 2877 2870 2864 2858 2852 2847 2842 2839 2837 2836 2835 2834 2833 2832 2830 2829 2827 2825 2823 2821 2819 2816 2814 2811 2808 2805 2802 2798 2796 2795 2795 2795 2796 2795 2794
2912 2908 2904 2900 2896 2892 2887 2882 2876 2869 2864 2858 2852 2846 2842 2839 2837 2835 2834 2833 2832 2831 2830 2829 2828 2826 2825 2823 2820 2817 2815 2812 2810 2808 2805 2801 2798 2796 2795 2794 2793 2793 2793
2909 2906 2902 2898 2895 2890 2886 2881 2875 2869 2864 2858 2852 2847 2842 2839 2836 2835 2834 2833 2832 2831 2830 2829 2828 2827 2825 2823 2821 2819 2816 2814 2812 2809 2806 2803 2801 2799 2797 2796 2794 2792 2791
2907 2903 2900 2896 2893 2889 2885 2880 2874 2869 2863 2859 2854 2848 2844 2839 2837 2835 2834 2832 2831 2830 2829 2829 2828 2827 2826 2824 2822 2820 2818 2815 2813 2810 2808 2805 2803 2801 2799 2798 2796 2794 2792
2904 2901 2897 2894 2891 2887 2883 2879 2874 2869 2864 2859 2855 2851 2846 2842 2838 2835 2834 2832 2831 2830 2829 2828 2828 2827 2826 2824 2823 2821 2819 2816 2814 2811 2809 2807 2804 2802 2801 2799 2797 2796 2793
2902 2898 2895 2892 2889 2885 2881 2877 2873 2869 2864 2860 2855 2851 2848 2844 2840 2837 2835 2833 2832 2831 2830 2828 2828 2827 2826 2824 2823 2821 2819 2817 2815 2812 2810 2808 2806 2803 2802 2800 2798 2796 2794